Regional Weather Roundup
Issued by NWS

Home | Current Version | Previous Version | Text Only | Print | Product List | Glossary On
Versions: 1 2 3 4 5 6 7 8 9 10 11 12 13 14 15 16 17 18 19 20 21 22 23 24 25 26 27 28 29 30 31 32 33 34 35 36 37 38 39 40 41 42 43 44 45 46 47 48 49 50
000
ASUS43 KDMX 220306
RWRIA

WEATHER ROUNDUP FOR IOWA
NATIONAL WEATHER SERVICE DES MOINES IA
1000 PM CDT THU SEP 21 2017

NOTE: "FAIR" INDICATES FEW OR NO CLOUDS BELOW 12,000 FEET WITH NO
SIGNIFICANT WEATHER AND/OR OBSTRUCTIONS TO VISIBILITY.

* - THESE STATIONS ARE NOT NWS STATIONS...THUS NOT UNDER NWS
QUALITY CONTROL.  THEY ALSO DO NOT REPORT WEATHER SUCH
AS PRECIPITATION OR FOG.

IAZ001>003-012>014-020>022-031>034-043>046-220400-
   NORTHWEST IOWA

CITY           SKY/WX    TMP DP  RH WIND       PRES   REMARKS
CARROLL *      CLEAR     79  72  78 S12G17    29.81S HX  82
CHEROKEE *     CLEAR     77  73  87 S10       29.77R
DENISON *      CLEAR     79  72  78 S16       29.81S HX  82
LE MARS *      CLEAR     81  72  74 S14       29.74R HX  84
ORANGE CITY *  CLEAR     79  73  83 SE6       29.76S HX  82
SHELDON *      CLEAR     77  73  88 S10       29.75R
SIOUX CITY     CLEAR     80  73  79 SE10G18   29.74R HX  84
SPENCER        CLEAR     77  72  84 SE10      29.78S
STORM LAKE *   CLEAR     77  72  83 S9        29.81R
$$

IAZ055>058-069>071-079>083-090>094-220400-
   SOUTHWEST IOWA

CITY           SKY/WX    TMP DP  RH WIND       PRES   REMARKS
ATLANTIC *     CLEAR     81  72  74 S10G18    29.83R HX  84
AUDUBON *      CLEAR     79  72  78 S7        29.85R HX  82
CLARINDA *     CLEAR     81  73  78 S8G15     29.85R HX  85
COUNCIL BLFS * CLEAR     81  77  89 S16G24    29.80S HX  88
CRESTON *      CLEAR     79  70  73 S12G18    29.88R HX  81
HARLAN  *      CLEAR     81  73  78 S10       29.85R HX  85
LAMONI         CLEAR     80  70  71 SE12      29.88S HX  83
RED OAK *      CLEAR     81  73  78 SE10      29.82S HX  85
SHENANDOAH *   CLEAR     82  73  74 S16G23    29.82R HX  88
$$

IAZ047>049-059>061-072>074-084-220400-
   CENTRAL IOWA

CITY           SKY/WX    TMP DP  RH WIND       PRES   REMARKS
AMES           CLEAR     78  73  84 SE10      29.86R HX  81
ANKENY *       CLEAR     81  70  69 S8G15     29.87R HX  84
BOONE *        CLEAR     79  70  73 S9G15     29.85R HX  81
CHARITON *     CLEAR     79  70  73 S10G16    29.89R HX  81
DES MOINES     CLEAR     82  69  64 S15G22    29.85R HX  85
GRINNELL*      CLEAR     77  70  78 SE12      29.91S
KNOXVILLE *    CLEAR     79  70  73 SE8       29.88R HX  81
MARSHALLTOWN   CLEAR     77  71  82 SE12      29.88R
NEWTON *       CLEAR     75  72  88 SE8       29.89R
PELLA *        CLEAR     77  70  79 SE6       29.90R
PERRY *          N/A     77  72  82 SE7       29.84S
$$

IAZ004>006-015-016-023>025-035-036-220400-
   NORTH CENTRAL IOWA

CITY           SKY/WX    TMP DP  RH WIND       PRES   REMARKS
ALGONA *       CLEAR     79  73  83 SE14G22   29.82R HX  82
CLARION *      PTCLDY    79  72  78 SE13G21   29.84S HX  82
ESTHERVILLE    CLEAR     76  72  87 S12       29.79R
MASON CITY     CLEAR     77  68  73 SE13      29.87R
FOREST CITY *    N/A     77  70  78 SE12      29.85R
WEBSTER CITY * CLEAR     79  70  73 SE10G17   29.82S HX  81
IOWA FALLS *     N/A     77  71  81 SE10      29.88S
$$

IAZ007>011-017>019-026>030-037>042-050>054-066-220400-
   NORTHEAST IOWA

CITY           SKY/WX    TMP DP  RH WIND       PRES   REMARKS
CEDAR RAPIDS   CLEAR     78  71  79 S10       29.92R HX  80
CHARLES CITY * CLEAR     77  70  78 SE10G17   29.90R
CLINTON *      CLEAR    N/A N/A N/A SE8       29.97R
DECORAH *      CLEAR     73  68  83 SE8       29.92R
DUBUQUE        PTCLDY    73  68  84 S10       29.96R
MONTICELLO *   CLEAR     75  70  83 SE7       29.94R
OELWEIN *      CLEAR     75  70  83 SE10      29.93R
WATERLOO       CLEAR     77  67  71 SE13      29.89R
$$

IAZ064-065-067-068-078-220400-
   EAST CENTRAL IOWA

CITY           SKY/WX    TMP DP  RH WIND       PRES   REMARKS
DAVENPORT      CLEAR     76  70  82 SE7       29.97S
IOWA CITY      CLEAR     76  70  82 SE7       29.94R
MT. PLEASANT * CLEAR     77  69  78 SE9       29.94R
MUSCATINE *    CLEAR     77  72  83 S6        29.94R
QUAD CITIES    CLEAR     77  69  76 S7        29.95S
$$

IAZ062-063-075>077-085>089-095>099-220400-
   SOUTHEAST IOWA

CITY           SKY/WX    TMP DP  RH WIND       PRES   REMARKS
BURLINGTON     CLEAR     79  71  76 SE12      29.95R HX  82
FAIRFIELD *    CLEAR     79  70  73 S8        29.92R HX  81
FORT MADISON * CLEAR     81  72  74 SE12      29.95S HX  84
KEOKUK *       CLEAR     79  70  73 SE8       29.94R HX  81
OSKALOOSA *      N/A     77  71  84 SE8       29.91R
OTTUMWA        CLEAR     80  72  76 S12       29.91R HX  84
WASHINGTON *   CLEAR     77  73  88 SE7       29.94R
$$

ABBREVIATIONS USED IN REMARKS
   TC - TEMPERATURES IN CELSIUS
  WCI - WIND CHILL INDEX
   HX - HEAT INDEX
  VSB - VISIBILITY
$$





USA.gov is the U.S. government's official web portal to all federal, state and local government web resources and services.